Zurück zum Katalog

COSMOS 1275 DEB

AktivPO
NORAD 42125·DEBRIS·🇷🇺 Russia

Gestartet Jun 4, 1981 von Plesetsk Cosmodrome

Loading…

Nächste Überflüge (nächste 24 Stunden)

TLE

AlterndSource: Space-Track

Epoche: Sep 8, 2026, 05:59 UTC

1 42125U 81053QM  26251.24957021  .00001306  00000-0  72794-3 0  9999
2 42125  82.9327 233.8506 0048837 266.0715  93.4876 14.09720224609071

Verfolge COSMOS 1275 DEB in Echtzeit mit AllMySat

Download on the App Store